TimeCDT,TemperatureF,Dew PointF,Humidity,Sea Level PressureIn,VisibilityMPH,Wind Direction,Wind SpeedMPH,Gust SpeedMPH,PrecipitationIn,Events,Conditions,WindDirDegrees,DateUTC
12:53 AM,36.0,28.9,76,30.54,10.0,North,13.8,-,N/A,,Overcast,360,2013-05-02 05:53:00
1:53 AM,37.0,30.0,76,30.55,10.0,North,17.3,-,N/A,,Overcast,350,2013-05-02 06:53:00
2:53 AM,36.0,30.0,79,30.55,10.0,North,16.1,-,N/A,,Overcast,350,2013-05-02 07:53:00
3:53 AM,37.0,30.0,76,30.57,10.0,North,16.1,-,N/A,,Overcast,360,2013-05-02 08:53:00
4:53 AM,37.0,28.0,70,30.58,10.0,North,16.1,-,N/A,,Overcast,10,2013-05-02 09:53:00
5:53 AM,36.0,30.0,79,30.60,10.0,North,12.7,-,N/A,,Overcast,350,2013-05-02 10:53:00
6:53 AM,36.0,28.9,76,30.62,10.0,North,17.3,-,N/A,,Overcast,350,2013-05-02 11:53:00
7:53 AM,36.0,28.9,76,30.65,10.0,North,18.4,-,N/A,,Overcast,360,2013-05-02 12:53:00
8:53 AM,37.0,28.9,73,30.66,10.0,North,18.4,-,N/A,,Overcast,350,2013-05-02 13:53:00
9:53 AM,39.9,30.0,68,30.66,10.0,North,23.0,29.9,N/A,,Scattered Clouds,10,2013-05-02 14:53:00
10:53 AM,43.0,30.0,60,30.65,10.0,North,24.2,32.2,N/A,,Partly Cloudy,10,2013-05-02 15:53:00
11:53 AM,45.0,30.9,58,30.65,10.0,North,26.5,33.4,N/A,,Partly Cloudy,360,2013-05-02 16:53:00
12:53 PM,46.9,30.9,54,30.62,10.0,North,24.2,33.4,N/A,,Clear,360,2013-05-02 17:53:00
1:53 PM,50.0,30.9,48,30.60,10.0,North,24.2,29.9,N/A,,Partly Cloudy,360,2013-05-02 18:53:00
2:53 PM,51.1,28.9,43,30.58,10.0,North,28.8,35.7,N/A,,Partly Cloudy,350,2013-05-02 19:53:00
3:53 PM,51.1,28.9,43,30.55,10.0,North,17.3,31.1,N/A,,Scattered Clouds,360,2013-05-02 20:53:00
4:53 PM,52.0,30.0,43,30.52,10.0,North,24.2,29.9,N/A,,Scattered Clouds,10,2013-05-02 21:53:00
5:53 PM,52.0,27.0,38,30.51,10.0,North,21.9,29.9,N/A,,Scattered Clouds,360,2013-05-02 22:53:00
6:53 PM,51.1,28.0,41,30.50,10.0,NNE,18.4,23.0,N/A,,Partly Cloudy,20,2013-05-02 23:53:00
7:53 PM,48.9,30.0,48,30.48,10.0,NNE,11.5,-,N/A,,Clear,20,2013-05-03 00:53:00
8:53 PM,43.0,34.0,71,30.49,10.0,NNE,6.9,-,N/A,,Clear,20,2013-05-03 01:53:00
9:53 PM,39.9,30.9,70,30.49,10.0,North,5.8,-,N/A,,Clear,10,2013-05-03 02:53:00
10:53 PM,37.0,32.0,82,30.48,10.0,NW,4.6,-,N/A,,Clear,310,2013-05-03 03:53:00
11:53 PM,37.0,28.9,73,30.46,10.0,NNW,3.5,-,N/A,,Clear,330,2013-05-03 04:53:00